Stations météo

réclame
Mon MeteoGroup
Glasgow/Bishopton, Grande-Bretagne (3134): Température de l'air & dewpoint: 11.07.2018 12:00:00 - 17.07.2018 12:00:00 (BST)Glasgow/Bishopton, Grande-Bretagne (3134): Température de l'air -20cm & Température de l'air -100cm: 11.07.2018 12:00:00 - 17.07.2018 12:00:00 (BST)Glasgow/Bishopton, Grande-Bretagne (3134): Vitesse du vent: 11.07.2018 12:00:00 - 17.07.2018 12:00:00 (BST)Glasgow/Bishopton, Grande-Bretagne (3134): Direction du vent: 11.07.2018 12:00:00 - 17.07.2018 12:00:00 (BST)Glasgow/Bishopton, Grande-Bretagne (3134): reduced air pressure: 11.07.2018 12:00:00 - 17.07.2018 12:00:00 (BST)Glasgow/Bishopton, Grande-Bretagne (3134): visibility: 11.07.2018 12:00:00 - 17.07.2018 12:00:00 (BST)Glasgow/Bishopton, Grande-Bretagne (3134): Ensoleillement: 11.07.2018 12:00:00 - 17.07.2018 12:00:00 (BST)Glasgow/Bishopton, Grande-Bretagne (3134): Quantités de précipitations: 11.07.2018 12:00:00 - 17.07.2018 12:00:00 (BST)
Date & Time tt [°C] td [°C] tt -20cm [°C] tt -100cm [°C] ff [km/h] ff [knt] dd ppp [hPa] vv [km] sd [min] rr [mm]
17.07.2018 12:00:00 15,9 9,7 - - 26 14 NW 1013,3 30 18 0,0
17.07.2018 11:00:00 16,4 11,5 - - 16 9 NW 1012,7 35 24 0,0
17.07.2018 10:00:00 15,7 11,5 18,5 16,7 8 4 NW 1012,8 30 6 0,0
17.07.2018 09:00:00 14,3 10,9 - - 9 5 WNW 1012,9 35 0 0,0
17.07.2018 08:00:00 14,0 11,5 - - 8 4 WSW 1012,7 45 0 0,0
17.07.2018 07:00:00 13,5 11,0 - - 2 1 WNW 1012,5 40 0 0,0
17.07.2018 06:00:00 13,1 10,4 - - 8 4 WNW 1012,3 45 0 0,0
17.07.2018 05:00:00 12,7 10,3 - - 2 1 WNW 1012,2 50 0 0,0
17.07.2018 04:00:00 12,9 10,2 - - 2 1 W 1012,2 50 0 0,0
17.07.2018 03:00:00 13,3 10,2 - - 4 2 NW 1012,4 50 0 0,0
17.07.2018 02:00:00 13,8 10,0 - - 8 4 WNW 1012,5 50 0 0,0
17.07.2018 01:00:00 13,9 10,4 - - 8 4 WSW 1012,8 45 - 0,0
17.07.2018 00:00:00 14,3 10,2 - - 8 4 NW 1012,9 45 0 0,0
16.07.2018 23:00:00 14,8 10,1 - - 11 6 WNW 1012,8 50 0 0,0
16.07.2018 22:00:00 15,4 10,0 - - 8 4 W 1012,7 50 0 0,0
16.07.2018 21:00:00 16,1 9,6 - - 8 4 WNW 1012,4 45 0 0,0
16.07.2018 20:00:00 17,3 9,1 - - 13 7 WNW 1012,1 40 18 0,0
16.07.2018 19:00:00 17,1 9,4 - - 13 7 WNW 1012,0 40 30 0,0
16.07.2018 18:00:00 17,6 9,5 - - 13 7 WNW 1011,9 35 6 0,0
16.07.2018 17:00:00 19,4 10,9 - - 16 9 W 1011,9 30 24 0,0
16.07.2018 16:00:00 19,3 12,1 - - 15 8 W 1012,0 45 18 0,0
16.07.2018 15:00:00 19,0 10,5 - - 15 8 WSW 1011,9 50 30 0,0
16.07.2018 14:00:00 18,6 9,8 - - 15 8 WSW 1012,1 19 6 0,0
16.07.2018 13:00:00 18,2 10,7 - - 15 8 W 1012,1 35 6 0,0
16.07.2018 12:00:00 17,7 11,6 - - 15 8 W 1012,1 40 6 0,0
16.07.2018 11:00:00 17,1 11,9 - - 15 8 W 1011,9 24 12 0,0
16.07.2018 10:00:00 15,7 12,4 18,4 16,7 9 5 W 1011,8 45 0 0,0
16.07.2018 09:00:00 14,7 12,6 - - 11 6 W 1011,7 20 0 0,0
16.07.2018 08:00:00 14,4 12,8 - - 11 6 W 1011,5 35 0 0,0
16.07.2018 07:00:00 13,8 13,1 - - 8 4 W 1011,2 30 0 0,0
16.07.2018 06:00:00 13,5 12,7 - - 13 7 NW 1011,0 35 0 0,2
16.07.2018 05:00:00 14,7 13,8 - - 11 6 WNW 1010,6 4,5 0 0,0
16.07.2018 04:00:00 15,7 15,3 - - 9 5 SSW 1010,3 5 0 0,0
16.07.2018 03:00:00 16,4 15,9 - - 5 3 SSW 1010,3 17 0 0,0
16.07.2018 02:00:00 16,5 15,8 - - 5 3 SSW 1010,7 29 0 0,0
16.07.2018 01:00:00 16,3 15,8 - - 5 3 S 1010,8 30 - 0,0
16.07.2018 00:00:00 16,3 15,8 - - 4 2 SE 1011,1 40 0 0,0
15.07.2018 23:00:00 16,4 16,0 - - 8 4 SE 1011,2 15 0 0,2
15.07.2018 22:00:00 16,5 16,0 - - 5 3 S 1011,5 24 0 0,0
15.07.2018 21:00:00 16,5 16,1 - - 9 5 S 1011,5 50 0 0,2
15.07.2018 20:00:00 16,5 16,2 - - 11 6 S 1011,6 40 0 0,6
15.07.2018 19:00:00 17,0 16,5 - - 8 4 SSW 1011,8 9 0 0,4
15.07.2018 18:00:00 17,1 16,5 - - 11 6 S 1012,0 8 0 0,6
15.07.2018 17:00:00 17,0 16,4 - - 13 7 SSW 1012,3 13 0 0,8
15.07.2018 16:00:00 17,1 16,3 - - 13 7 SSW 1012,4 8 0 0,8
15.07.2018 15:00:00 17,7 16,4 - - 11 6 SSW 1012,5 12 0 0,2
15.07.2018 14:00:00 17,4 16,1 - - 16 9 SSW 1012,6 10 0 0,0
15.07.2018 13:00:00 17,3 16,3 - - 13 7 SSW 1012,8 6 0 0,0
15.07.2018 12:00:00 17,6 16,2 - - 16 9 SSW 1012,8 30 0 0,6
15.07.2018 11:00:00 17,1 16,3 - - 9 5 S 1012,9 5 0 1,6
15.07.2018 10:00:00 16,9 15,8 18,7 16,7 8 4 S 1013,1 5 0 0,0
15.07.2018 09:00:00 17,3 14,7 - - 9 5 S 1013,0 19 0 0,0
15.07.2018 08:00:00 17,0 14,3 - - 5 3 SSE 1013,1 40 0 0,0
15.07.2018 07:00:00 16,5 14,5 - - 5 3 SSE 1012,8 27 0 0,0
15.07.2018 06:00:00 16,2 14,4 - - 8 4 S 1012,8 23 0 0,0
15.07.2018 05:00:00 16,1 14,1 - - 5 3 SSE 1013,0 23 0 0,0
15.07.2018 04:00:00 16,2 14,2 - - 5 3 SSE 1013,5 12 0 0,0
15.07.2018 03:00:00 16,8 12,9 - - 9 5 S 1013,7 40 0 0,0
15.07.2018 02:00:00 16,9 12,6 - - 8 4 SSE 1014,0 30 0 0,0
15.07.2018 01:00:00 17,0 12,9 - - 5 3 S 1014,2 23 - 0,0
15.07.2018 00:00:00 17,3 12,6 - - 8 4 S 1014,6 35 0 0,0
14.07.2018 23:00:00 17,8 12,7 - - 11 6 SSW 1014,8 45 0 0,0
14.07.2018 22:00:00 18,2 13,5 - - 11 6 S 1014,8 27 0 0,0
14.07.2018 21:00:00 18,9 13,5 - - 9 5 SSW 1014,7 35 0 0,0
14.07.2018 20:00:00 19,9 13,3 - - 13 7 SW 1014,8 40 0 0,0
14.07.2018 19:00:00 20,5 13,0 - - 13 7 SW 1014,8 40 0 0,0
14.07.2018 18:00:00 21,3 13,3 - - 13 7 SW 1015,1 30 36 0,0
14.07.2018 17:00:00 22,2 12,3 - - 21 11 SSW 1015,3 19 60 0,0
14.07.2018 16:00:00 23,5 13,4 - - 18 10 SW 1015,6 30 60 0,0
14.07.2018 15:00:00 21,3 13,6 - - 22 12 WSW 1016,1 30 12 0,0
14.07.2018 14:00:00 20,9 13,5 - - 21 11 SSW 1016,5 30 18 0,0
14.07.2018 13:00:00 19,8 14,0 - - 22 12 SW 1016,8 35 0 0,0
14.07.2018 12:00:00 19,9 13,1 - - 18 10 SSW 1017,0 24 42 0,0
14.07.2018 11:00:00 20,6 12,4 - - 18 10 SW 1017,3 30 60 0,0
14.07.2018 10:00:00 18,6 13,0 18,7 16,5 16 9 SSW 1017,6 22 60 0,0
14.07.2018 09:00:00 16,6 13,0 - - 15 8 SSW 1018,0 45 54 0,0
14.07.2018 08:00:00 15,4 12,3 - - 9 5 SSW 1018,2 28 42 0,0
14.07.2018 07:00:00 13,2 12,5 - - 5 3 SSW 1018,6 9 0 0,0
14.07.2018 06:00:00 13,1 12,8 - - 9 5 S 1018,7 5 0 0,0
14.07.2018 05:00:00 12,4 12,2 - - 5 3 E 1019,2 2,9 0 0,0
14.07.2018 04:00:00 10,8 10,2 - - 2 1 SSE 1019,4 40 0 0,0
14.07.2018 03:00:00 10,9 10,2 - - 2 1 W 1019,6 30 0 0,0
14.07.2018 02:00:00 11,1 10,3 - - 8 4 WSW 1019,9 50 0 0,0
14.07.2018 01:00:00 11,8 10,4 - - 5 3 SW 1020,1 50 - 0,0
14.07.2018 00:00:00 12,3 10,2 - - 4 2 SSW 1020,1 45 0 0,0
13.07.2018 23:00:00 14,3 11,0 - - 5 3 WNW 1020,3 50 0 0,0
13.07.2018 22:00:00 16,0 11,1 - - 11 6 WNW 1020,0 50 6 0,0
13.07.2018 21:00:00 18,2 11,9 - - 5 3 W 1019,7 50 48 0,0
13.07.2018 20:00:00 20,3 12,8 - - 11 6 W 1019,7 45 60 0,0
13.07.2018 19:00:00 21,7 12,7 - - 9 5 W 1019,8 50 60 0,0
13.07.2018 18:00:00 22,1 12,3 - - 13 7 W 1020,0 28 24 0,0
13.07.2018 17:00:00 19,6 13,0 - - 13 7 NNW 1020,2 45 0 0,0
13.07.2018 16:00:00 19,4 13,8 - - 13 7 NNW 1020,7 30 18 0,0
13.07.2018 15:00:00 19,9 13,6 - - 13 7 N 1021,1 30 24 0,0
13.07.2018 14:00:00 19,6 14,6 - - 11 6 NNW 1021,5 21 18 0,0
13.07.2018 13:00:00 18,3 14,1 - - 15 8 NNW 1021,9 26 0 0,0
13.07.2018 12:00:00 17,3 13,6 - - 13 7 NW 1022,0 20 0 0,0
13.07.2018 11:00:00 17,5 13,4 - - 5 3 NNW 1022,0 18 0 0,0
13.07.2018 10:00:00 17,5 13,4 18,9 16,5 2 1 N 1022,0 21 0 0,0
13.07.2018 09:00:00 16,3 12,9 - - 5 3 ESE 1022,3 18 0 0,0
13.07.2018 08:00:00 15,8 13,0 - - 2 1 SE 1022,4 18 0 0,0
13.07.2018 07:00:00 15,0 12,7 - - 2 1 ESE 1022,4 30 0 0,0
13.07.2018 06:00:00 14,6 12,8 - - 2 1 SW 1022,6 26 0 0,0
13.07.2018 05:00:00 14,4 12,3 - - 4 2 E 1022,5 25 0 0,0
13.07.2018 04:00:00 14,7 12,5 - - 5 3 ESE 1022,8 14 0 0,0
13.07.2018 03:00:00 14,7 12,6 - - 5 3 SSE 1023,0 23 0 0,0
13.07.2018 02:00:00 14,4 12,4 - - 5 3 SSE 1023,0 20 0 0,0
13.07.2018 01:00:00 15,3 12,5 - - 8 4 ESE 1023,3 45 - 0,0
13.07.2018 00:00:00 15,8 12,6 - - 9 5 E 1023,1 40 0 0,0
12.07.2018 23:00:00 16,7 13,5 - - 4 2 WNW 1023,0 40 0 0,0
12.07.2018 22:00:00 17,5 13,7 - - 8 4 W 1022,4 45 18 0,0
12.07.2018 21:00:00 19,3 14,4 - - 9 5 W 1022,0 40 18 0,0
12.07.2018 20:00:00 19,8 13,7 - - 8 4 NW 1021,8 40 0 0,0
12.07.2018 19:00:00 20,6 13,7 - - 5 3 WNW 1021,8 45 12 0,0
12.07.2018 18:00:00 22,6 14,2 - - 11 6 NNW 1021,9 30 48 0,0
12.07.2018 17:00:00 22,1 14,0 - - 8 4 NW 1022,2 24 30 0,0
12.07.2018 16:00:00 21,6 14,2 - - 9 5 NW 1022,5 30 6 0,0
12.07.2018 15:00:00 20,0 12,5 - - 8 4 N 1022,7 40 12 0,0
12.07.2018 14:00:00 20,0 14,3 - - 9 5 N 1022,9 27 0 0,0
12.07.2018 13:00:00 19,6 14,0 - - 15 8 NNW 1023,1 40 6 0,0
12.07.2018 12:00:00 20,2 12,3 - - 5 3 SE 1023,0 45 12 0,0
12.07.2018 11:00:00 18,4 12,1 - - 5 3 ENE 1023,2 40 0 0,0
12.07.2018 10:00:00 16,9 11,7 18,7 16,5 4 2 E 1023,3 35 0 0,0
12.07.2018 09:00:00 16,0 11,4 - - 8 4 E 1023,2 30 0 0,0
12.07.2018 08:00:00 15,6 11,3 - - 9 5 E 1023,4 45 0 0,0
12.07.2018 07:00:00 14,7 11,5 - - 8 4 E 1023,0 45 0 0,0
12.07.2018 06:00:00 14,3 11,5 - - 5 3 E 1023,1 40 0 0,0
12.07.2018 05:00:00 14,4 11,5 - - 8 4 E 1023,1 50 0 0,0
12.07.2018 04:00:00 14,5 11,8 - - 9 5 E 1023,1 50 0 0,0
12.07.2018 03:00:00 14,7 11,9 - - 9 5 E 1023,1 50 0 0,0
12.07.2018 02:00:00 15,0 11,9 - - 11 6 ESE 1023,3 50 0 0,0
12.07.2018 01:00:00 15,4 12,0 - - 13 7 ESE 1023,3 45 - 0,0
12.07.2018 00:00:00 15,6 12,0 - - 16 9 E 1023,1 50 0 0,0
11.07.2018 23:00:00 15,8 14,0 - - 5 3 ENE 1022,9 50 0 0,0
11.07.2018 22:00:00 17,0 14,7 - - 11 6 NNW 1022,6 50 0 0,0
11.07.2018 21:00:00 17,3 14,9 - - 13 7 NW 1022,4 50 0 0,0
11.07.2018 20:00:00 18,1 15,0 - - 16 9 NW 1022,3 50 6 0,0
11.07.2018 19:00:00 19,2 14,8 - - 18 10 NW 1022,1 40 6 0,0
11.07.2018 18:00:00 19,5 15,5 - - 21 11 NW 1022,2 45 24 0,0
11.07.2018 17:00:00 20,3 15,5 - - 18 10 NW 1022,4 20 6 0,0
11.07.2018 16:00:00 18,5 14,6 - - 21 11 NW 1022,7 23 0 0,0
11.07.2018 15:00:00 17,6 14,7 - - 15 8 NW 1022,9 24 0 0,0
11.07.2018 14:00:00 17,8 14,8 - - 13 7 NW 1023,0 18 0 0,0
11.07.2018 13:00:00 19,0 14,9 - - 15 8 NNW 1023,3 30 0 0,0
11.07.2018 12:00:00 18,5 15,3 - - 13 7 NNW 1023,4 12 6 0,0

tt = Température de l'air
td = dewpoint
tt -20cm = Température de l'air -20cm
tt -100cm = Température de l'air -100cm
ff = Vitesse du vent
dd = Direction du vent
ppp = reduced air pressure
vv = visibility
sd = Ensoleillement
rr = Quantités de précipitations

stations d'obs. à proximité